Location: Castelnau
(43.6639°N, 0.8431°W)
Time: 17:12:41
(UTC+00:00)

Cosmos 1408 Rocket - Pass Details

Date: 13 January 2026
Orbit: 594 x 623 km, 82.6° (Epoch: 10 February)

Event Time Altitude Azimuth Distance (km) Brightness Sun altitude
Rises 05:47:51 0° 187° (S) 2,866 7.0 -18.9°
Reaches altitude 10° 05:50:04 10° 187° (S) 1,961 6.2 -18.5°
Maximum altitude 05:54:24 89° 269° (W) 614 3.4 -17.7°
Drops below altitude 10° 05:58:45 10° 8° (N) 1,958 6.1 -17.0°
Sets 06:00:58 0° 9° (N) 2,862 6.9 -16.6°
